EAG5511 SBGR-SCEL

Flight info

Callsign EAG5511
Flight time 3h 44m
Altitude 43000
Route UBSOD UZ38 ARTUT UM400 CBA UZ105 UMKAL UMKAL7C
Aircraft C700/M-SBDGHM1RWXY/LB2

Departure

Time 2026-04-30 14:08
Airport São Paulo/Guarulhos–Governor André Franco Montoro International Airport (SBGR)

Arrival

Time 2026-04-30 17:53
Airport Comodoro Arturo Merino Benítez International Airport (SCEL)
Time Latitude Longitude Altitude Speed Heading
2026-04-30 14:01 -23.43305 -46.48363 2469 ft 0 kts 164°
2026-04-30 14:07 -23.43309 -46.48362 2469 ft 4 kts 164°
2026-04-30 14:08 -23.43398 -46.48219 2468 ft 30 kts 74°
2026-04-30 14:08 -23.43262 -46.47708 2467 ft 112 kts 72°
2026-04-30 14:08 -23.42578 -46.45100 3139 ft 224 kts 75°
2026-04-30 14:09 -23.42073 -46.43462 4493 ft 228 kts 69°
2026-04-30 14:09 -23.41537 -46.41811 5758 ft 240 kts 71°
2026-04-30 14:09 -23.40487 -46.37977 7599 ft 286 kts 76°
2026-04-30 14:10 -23.40370 -46.35813 8925 ft 290 kts 94°
2026-04-30 14:10 -23.40793 -46.33643 10180 ft 298 kts 110°
2026-04-30 14:10 -23.41537 -46.31434 10961 ft 324 kts 111°
2026-04-30 14:10 -23.42602 -46.29242 12064 ft 330 kts 128°
2026-04-30 14:11 -23.44212 -46.27444 13314 ft 335 kts 144°
2026-04-30 14:11 -23.46258 -46.26215 14439 ft 338 kts 161°
2026-04-30 14:11 -23.48560 -46.25674 15466 ft 341 kts 178°
2026-04-30 14:11 -23.50924 -46.25890 16484 ft 343 kts 195°
2026-04-30 14:12 -23.53139 -46.26860 17497 ft 346 kts 212°
2026-04-30 14:12 -23.54985 -46.28485 18473 ft 349 kts 229°
2026-04-30 14:12 -23.56332 -46.30676 19373 ft 350 kts 246°
2026-04-30 14:12 -23.56878 -46.32361 20012 ft 350 kts 257°
2026-04-30 14:13 -23.57567 -46.35806 21284 ft 353 kts 259°
2026-04-30 14:13 -23.58080 -46.38428 22236 ft 355 kts 259°
2026-04-30 14:13 -23.58601 -46.41074 23174 ft 358 kts 259°
2026-04-30 14:13 -23.59130 -46.43732 24039 ft 361 kts 259°
2026-04-30 14:14 -23.59662 -46.46413 24791 ft 363 kts 260°
2026-04-30 14:14 -23.60196 -46.49113 25564 ft 365 kts 260°
2026-04-30 14:14 -23.60723 -46.51794 26317 ft 368 kts 261°
2026-04-30 14:14 -23.61142 -46.54552 27063 ft 370 kts 263°
2026-04-30 14:15 -23.61541 -46.57332 27821 ft 372 kts 263°
2026-04-30 14:15 -23.61958 -46.60124 28576 ft 374 kts 263°
2026-04-30 14:15 -23.62445 -46.62924 29276 ft 379 kts 258°
2026-04-30 14:15 -23.63271 -46.65673 29948 ft 385 kts 252°
2026-04-30 14:16 -23.64435 -46.68323 30600 ft 391 kts 245°
2026-04-30 14:16 -23.65890 -46.70860 31186 ft 396 kts 242°
2026-04-30 14:16 -23.67368 -46.73401 31754 ft 398 kts 242°
2026-04-30 14:16 -23.68908 -46.75933 32281 ft 404 kts 237°
2026-04-30 14:17 -23.70756 -46.78273 32799 ft 411 kts 230°
2026-04-30 14:17 -23.72867 -46.80353 33295 ft 418 kts 224°
2026-04-30 14:17 -23.75258 -46.82158 34033 ft 419 kts 217°
2026-04-30 14:17 -23.77780 -46.83739 34673 ft 417 kts 216°
2026-04-30 14:18 -23.80285 -46.85323 35264 ft 415 kts 216°
2026-04-30 14:18 -23.82772 -46.86906 35843 ft 414 kts 216°
2026-04-30 14:18 -23.87733 -46.90033 36993 ft 410 kts 216°
2026-04-30 14:19 -23.92651 -46.93146 37991 ft 407 kts 216°
2026-04-30 14:19 -23.95069 -46.94674 38456 ft 406 kts 217°
2026-04-30 14:19 -23.97505 -46.96217 38875 ft 405 kts 217°
2026-04-30 14:20 -23.99942 -46.97760 39220 ft 404 kts 217°
2026-04-30 14:20 -24.02367 -46.99297 39556 ft 403 kts 217°
2026-04-30 14:20 -24.07210 -47.02367 40127 ft 402 kts 217°
2026-04-30 14:21 -24.09628 -47.03901 40388 ft 401 kts 217°
2026-04-30 14:21 -24.12042 -47.05433 40648 ft 401 kts 217°
2026-04-30 14:21 -24.16823 -47.08469 41123 ft 399 kts 217°
2026-04-30 14:22 -24.19227 -47.10001 41325 ft 400 kts 217°
2026-04-30 14:22 -24.24022 -47.13046 41819 ft 397 kts 217°
2026-04-30 14:22 -24.26404 -47.14571 42001 ft 396 kts 219°
2026-04-30 14:23 -24.31041 -47.17802 42332 ft 395 kts 219°
2026-04-30 14:23 -24.35663 -47.20999 42766 ft 392 kts 219°
2026-04-30 14:24 -24.40242 -47.24187 42989 ft 392 kts 219°
2026-04-30 14:24 -24.42539 -47.25787 43112 ft 391 kts 219°
2026-04-30 14:25 -24.51870 -47.32280 43116 ft 402 kts 220°
2026-04-30 14:26 -24.58991 -47.37246 43113 ft 410 kts 220°
2026-04-30 14:27 -24.66265 -47.42325 43099 ft 416 kts 220°
2026-04-30 14:27 -24.71178 -47.45758 43112 ft 420 kts 220°
2026-04-30 14:28 -24.78595 -47.50949 43111 ft 426 kts 219°
2026-04-30 14:28 -24.83617 -47.54468 43115 ft 430 kts 220°
2026-04-30 14:29 -24.92908 -47.60987 43118 ft 435 kts 220°
2026-04-30 14:31 -25.06497 -47.70541 43116 ft 433 kts 220°
2026-04-30 14:31 -25.14055 -47.75868 43111 ft 427 kts 220°
2026-04-30 14:32 -25.21547 -47.81157 43114 ft 426 kts 220°
2026-04-30 14:33 -25.26513 -47.84666 43112 ft 427 kts 220°
2026-04-30 14:33 -25.34043 -47.89994 43119 ft 429 kts 220°
2026-04-30 14:34 -25.39078 -47.93564 43118 ft 430 kts 220°
2026-04-30 14:34 -25.44100 -47.97126 43120 ft 428 kts 220°
2026-04-30 14:35 -25.51548 -48.02419 43119 ft 426 kts 221°
2026-04-30 14:36 -25.56543 -48.05974 43122 ft 428 kts 221°
2026-04-30 14:36 -25.61076 -48.10084 43125 ft 417 kts 233°
2026-04-30 14:37 -25.64603 -48.15067 43126 ft 406 kts 244°
2026-04-30 14:37 -25.67120 -48.20557 43126 ft 401 kts 249°
2026-04-30 14:38 -25.69499 -48.26134 43122 ft 399 kts 249°
2026-04-30 14:38 -25.71850 -48.31705 43122 ft 399 kts 249°
2026-04-30 14:39 -25.74210 -48.37288 43127 ft 400 kts 249°
2026-04-30 14:39 -25.76574 -48.42891 43127 ft 402 kts 250°
2026-04-30 14:40 -25.80102 -48.51262 43132 ft 400 kts 250°
2026-04-30 14:40 -25.82452 -48.56854 43136 ft 400 kts 250°
2026-04-30 14:41 -25.84804 -48.62447 43130 ft 399 kts 250°
2026-04-30 14:41 -25.87142 -48.68025 43134 ft 398 kts 250°
2026-04-30 14:42 -25.89457 -48.73549 43135 ft 397 kts 250°
2026-04-30 14:42 -25.91793 -48.79122 43139 ft 398 kts 250°
2026-04-30 14:43 -25.94119 -48.84705 43140 ft 398 kts 250°
2026-04-30 14:43 -25.96446 -48.90289 43142 ft 398 kts 250°
2026-04-30 14:44 -25.98768 -48.95866 43147 ft 397 kts 250°
2026-04-30 14:44 -26.01071 -49.01407 43145 ft 398 kts 250°
2026-04-30 14:45 -26.03391 -49.07001 43139 ft 398 kts 250°
2026-04-30 14:45 -26.05714 -49.12593 43148 ft 398 kts 250°
2026-04-30 14:46 -26.08023 -49.18168 43148 ft 395 kts 250°
2026-04-30 14:46 -26.09933 -49.22782 43147 ft 395 kts 250°
2026-04-30 14:47 -26.12603 -49.29235 43146 ft 395 kts 250°
2026-04-30 14:47 -26.14911 -49.34783 43147 ft 395 kts 250°
2026-04-30 14:48 -26.17205 -49.40348 43148 ft 396 kts 250°
2026-04-30 14:48 -26.19116 -49.44977 43152 ft 396 kts 250°
2026-04-30 14:49 -26.21415 -49.50558 43146 ft 397 kts 250°
2026-04-30 14:49 -26.24088 -49.57059 43151 ft 397 kts 250°
2026-04-30 14:50 -26.27503 -49.65456 43152 ft 397 kts 251°
2026-04-30 14:51 -26.30544 -49.72928 43155 ft 397 kts 251°
2026-04-30 14:52 -26.34327 -49.82247 43152 ft 397 kts 251°
2026-04-30 14:52 -26.37396 -49.89733 43151 ft 396 kts 251°
2026-04-30 14:53 -26.40806 -49.98092 43147 ft 397 kts 251°
2026-04-30 14:54 -26.45382 -50.09323 43155 ft 397 kts 251°
2026-04-30 14:55 -26.48808 -50.17751 43147 ft 397 kts 250°
2026-04-30 14:56 -26.53347 -50.28945 43147 ft 397 kts 251°
2026-04-30 14:57 -26.56763 -50.37394 43150 ft 398 kts 251°
2026-04-30 14:58 -26.61202 -50.48641 43148 ft 396 kts 251°
2026-04-30 14:58 -26.64549 -50.57085 43146 ft 397 kts 251°
2026-04-30 15:00 -26.70192 -50.71110 43145 ft 396 kts 251°
2026-04-30 15:01 -26.74704 -50.82381 43148 ft 397 kts 251°
2026-04-30 15:01 -26.78066 -50.90815 43144 ft 398 kts 251°
2026-04-30 15:02 -26.80313 -50.96457 43145 ft 396 kts 251°
2026-04-30 15:03 -26.85896 -51.10519 43136 ft 395 kts 251°
2026-04-30 15:04 -26.91458 -51.24575 43139 ft 395 kts 251°
2026-04-30 15:06 -26.97015 -51.38664 43135 ft 396 kts 251°
2026-04-30 15:07 -27.01437 -51.49923 43133 ft 396 kts 251°
2026-04-30 15:08 -27.05866 -51.61226 43131 ft 396 kts 252°
2026-04-30 15:09 -27.11378 -51.75331 43129 ft 396 kts 252°
2026-04-30 15:10 -27.15782 -51.86645 43121 ft 396 kts 252°
2026-04-30 15:11 -27.22362 -52.03596 43118 ft 395 kts 252°
2026-04-30 15:13 -27.27810 -52.17726 43114 ft 395 kts 252°
2026-04-30 15:14 -27.35443 -52.37602 43110 ft 395 kts 252°
2026-04-30 15:17 -27.45163 -52.63048 43117 ft 393 kts 252°
2026-04-30 15:19 -27.53799 -52.85793 43100 ft 396 kts 252°
2026-04-30 17:39 -32.85497 -70.30814 18990 ft 399 kts 277°
2026-04-30 17:41 -32.83101 -70.56362 14776 ft 380 kts 279°
2026-04-30 17:42 -32.82638 -70.62538 13757 ft 378 kts 272°
2026-04-30 17:42 -32.84619 -70.71587 12225 ft 385 kts 246°
2026-04-30 17:43 -32.87832 -70.76611 11227 ft 369 kts 228°
2026-04-30 17:44 -32.93804 -70.81150 9908 ft 329 kts 201°
2026-04-30 17:44 -33.00311 -70.82348 8618 ft 285 kts 186°
2026-04-30 17:46 -33.08858 -70.81926 6982 ft 228 kts 177°
2026-04-30 17:47 -33.14960 -70.81573 5820 ft 215 kts 177°
2026-04-30 17:48 -33.21079 -70.81228 4654 ft 208 kts 178°
2026-04-30 17:48 -33.25195 -70.81008 3897 ft 180 kts 178°
2026-04-30 17:49 -33.29337 -70.80796 3113 ft 128 kts 178°
2026-04-30 17:50 -33.32842 -70.80614 2456 ft 127 kts 179°
2026-04-30 17:51 -33.35474 -70.80486 1891 ft 124 kts 177°
2026-04-30 17:52 -33.37825 -70.80343 1551 ft 77 kts 175°
2026-04-30 17:53 -33.39056 -70.80272 1554 ft 25 kts 176°
2026-04-30 17:54 -33.39430 -70.80127 1553 ft 7 kts 149°
2026-04-30 17:55 -33.39352 -70.80022 1554 ft 6 kts 63°
2026-04-30 17:56 -33.39346 -70.79841 1554 ft 0 kts 91°
2026-04-30 17:58 -33.39399 -70.79795 1554 ft 10 kts 173°
2026-04-30 17:59 -33.39588 -70.79788 1554 ft 7 kts 173°
2026-04-30 18:00 -33.39596 -70.79787 1591 ft 0 kts 173°